Location: Chassagnes
(44.4047°N, 4.1657°E)
Time: 12:53:50
(UTC+00:00)

Cosmos 2263 Rocket - Pass Details

Date: 27 October 2020
Orbit: 822 x 850 km, 71.0° (Epoch: 23 November)

Event Time Altitude Azimuth Distance (km) Brightness Sun altitude
Rises 19:11:17 0° 338° (NNW) 3,420 5.8 -27.7°
Reaches altitude 10° 19:13:51 10° 345° (NNW) 2,483 4.9 -28.1°
Enters shadow 19:17:12 32° 8° (N) 1,423 3.3 -28.7°
